When you browse on this site, cookies collect data to enhance your experience and personalize the content and advertising you see.
Visit our Privacy Policy to learn more. By continuing to use the site, you agree to this use of cookies and data.
  • In Deutschland
  • Länderverzeichnis
  • Für 7 Tage
  • Wassertemperatur
  • Wetterkarte
  • Widgets
  • user-avatar
    Anmelden

    Stündliche Wetter La Massana

    Heute, 23 August, Freitag

    Zeit Temperatur Niederschläge Wind Luftdruck Luftfeuchtigkeit
    00:00 +10°C° 0 mm 1 m/S 614 mmHg 61%
    01:00 +9°C° 0 mm 1 m/S 614 mmHg 65%
    02:00 +9°C° 0 mm 1 m/S 614 mmHg 69%
    03:00 +9°C° 0 mm 1 m/S 614 mmHg 72%
    04:00 +10°C° 0 mm 1 m/S 614 mmHg 76%
    05:00 +10°C° 0 mm 1 m/S 614 mmHg 79%
    06:00 +11°C° 0 mm 1 m/S 614 mmHg 80%
    07:00 +13°C° 0 mm 1 m/S 616 mmHg 68%
    08:00 +16°C° 0 mm 1 m/S 617 mmHg 55%
    09:00 +20°C° 0 mm 1 m/S 618 mmHg 43%
    10:00 +21°C° 0 mm 1 m/S 618 mmHg 40%
    11:00 +22°C° 0 mm 1 m/S 618 mmHg 37%
    12:00 +23°C° 0 mm 2 m/S 618 mmHg 34%
    13:00 +23°C° 0 mm 2 m/S 618 mmHg 36%
    14:00 +23°C° 0 mm 2 m/S 618 mmHg 37%
    15:00 +23°C° 0 mm 2 m/S 617 mmHg 39%
    16:00 +21°C° 0 mm 1 m/S 617 mmHg 47%
    17:00 +19°C° 0 mm 1 m/S 616 mmHg 56%
    18:00 +16°C° 0 mm 0 m/S 615 mmHg 64%
    19:00 +15°C° 0 mm 1 m/S 615 mmHg 68%
    20:00 +14°C° 0 mm 1 m/S 614 mmHg 72%
    21:00 +13°C° 0 mm 1 m/S 614 mmHg 76%
    22:00 +12°C° 0 mm 1 m/S 614 mmHg 76%
    23:00 +12°C° 0 mm 1 m/S 614 mmHg 75%

    Morgen, 24 August, Samstag

    Zeit Temperatur Niederschläge Wind Luftdruck Luftfeuchtigkeit
    00:00 +12°C° 0 mm 1 m/S 614 mmHg 75%
    01:00 +12°C° 0 mm 1 m/S 613 mmHg 75%
    02:00 +12°C° 0 mm 1 m/S 613 mmHg 74%
    03:00 +12°C° 0 mm 1 m/S 613 mmHg 74%
    04:00 +12°C° 0 mm 1 m/S 613 mmHg 73%
    05:00 +12°C° 0 mm 1 m/S 613 mmHg 73%
    06:00 +12°C° 0 mm 1 m/S 613 mmHg 73%
    07:00 +15°C° 0 mm 1 m/S 615 mmHg 63%
    08:00 +19°C° 0 mm 1 m/S 616 mmHg 53%
    09:00 +22°C° 0 mm 1 m/S 617 mmHg 43%
    10:00 +23°C° 0 mm 1 m/S 617 mmHg 40%
    11:00 +23°C° 0 mm 1 m/S 617 mmHg 36%
    12:00 +24°C° 0 mm 2 m/S 617 mmHg 33%
    13:00 +24°C° 0 mm 2 m/S 617 mmHg 35%
    14:00 +23°C° 0 mm 1 m/S 617 mmHg 37%
    15:00 +23°C° 0 mm 1 m/S 616 mmHg 39%
    16:00 +21°C° 0 mm 1 m/S 616 mmHg 45%
    17:00 +20°C° 0 mm 1 m/S 615 mmHg 52%
    18:00 +18°C° 0 mm 1 m/S 614 mmHg 58%
    19:00 +16°C° 0 mm 1 m/S 614 mmHg 59%
    20:00 +15°C° 0 mm 1 m/S 614 mmHg 60%
    21:00 +13°C° 0 mm 1 m/S 614 mmHg 61%
    22:00 +13°C° 0 mm 1 m/S 613 mmHg 61%
    23:00 +13°C° 0 mm 1 m/S 613 mmHg 60%

    übermorgen, 25 August, Sonntag

    Zeit Temperatur Niederschläge Wind Luftdruck Luftfeuchtigkeit
    00:00 +13°C° 0 mm 1 m/S 613 mmHg 60%
    01:00 +12°C° 0 mm 1 m/S 613 mmHg 59%
    02:00 +12°C° 0 mm 1 m/S 613 mmHg 58%
    03:00 +12°C° 0 mm 1 m/S 613 mmHg 57%
    04:00 +12°C° 0 mm 1 m/S 613 mmHg 58%
    05:00 +12°C° 0 mm 1 m/S 613 mmHg 58%
    06:00 +12°C° 0 mm 1 m/S 613 mmHg 58%
    07:00 +15°C° 0 mm 1 m/S 614 mmHg 51%
    08:00 +19°C° 0 mm 1 m/S 616 mmHg 45%
    09:00 +20°C° 0 mm 0 m/S 617 mmHg 38%
    10:00 +23°C° 0 mm 1 m/S 617 mmHg 37%
    11:00 +24°C° 0 mm 1 m/S 617 mmHg 35%
    12:00 +24°C° 0 mm 2 m/S 617 mmHg 33%
    13:00 +24°C° 0 mm 2 m/S 617 mmHg 36%
    14:00 +23°C° 0 mm 2 m/S 616 mmHg 40%
    15:00 +23°C° 0 mm 2 m/S 616 mmHg 43%
    16:00 +21°C° 0 mm 1 m/S 615 mmHg 51%
    17:00 +20°C° 0 mm 1 m/S 614 mmHg 58%
    18:00 +18°C° 0 mm 1 m/S 613 mmHg 66%
    19:00 +16°C° 0 mm 1 m/S 613 mmHg 69%
    20:00 +15°C° 0 mm 1 m/S 613 mmHg 72%
    21:00 +14°C° 0 mm 1 m/S 613 mmHg 75%
    22:00 +13°C° 0 mm 1 m/S 613 mmHg 77%
    23:00 +13°C° 0 mm 1 m/S 613 mmHg 78%

    26 August, Montag

    Zeit Temperatur Niederschläge Wind Luftdruck Luftfeuchtigkeit
    00:00 +13°C° 0 mm 1 m/S 613 mmHg 80%
    01:00 +12°C° 0 mm 1 m/S 612 mmHg 80%
    02:00 +12°C° 0 mm 1 m/S 612 mmHg 79%
    03:00 +12°C° 0 mm 1 m/S 612 mmHg 79%
    04:00 +12°C° 0 mm 1 m/S 612 mmHg 78%
    05:00 +12°C° 0 mm 1 m/S 612 mmHg 77%
    06:00 +13°C° 0 mm 1 m/S 612 mmHg 76%
    07:00 +15°C° 0 mm 1 m/S 613 mmHg 68%
    08:00 +18°C° 0 mm 1 m/S 614 mmHg 60%
    09:00 +21°C° 0 mm 1 m/S 615 mmHg 52%
    10:00 +22°C° 0 mm 1 m/S 615 mmHg 48%
    11:00 +23°C° 0 mm 2 m/S 616 mmHg 44%
    12:00 +23°C° 0 mm 2 m/S 616 mmHg 39%
    13:00 +23°C° 0 mm 2 m/S 615 mmHg 40%
    14:00 +23°C° 0 mm 2 m/S 615 mmHg 40%
    15:00 +23°C° 0 mm 2 m/S 615 mmHg 40%
    16:00 +20°C° 0 mm 2 m/S 614 mmHg 47%
    17:00 +20°C° 0 mm 1 m/S 613 mmHg 53%
    18:00 +18°C° 0 mm 1 m/S 612 mmHg 60%
    19:00 +15°C° 0 mm 1 m/S 612 mmHg 63%
    20:00 +14°C° 0 mm 1 m/S 612 mmHg 66%
    21:00 +12°C° 0 mm 1 m/S 611 mmHg 69%
    22:00 +12°C° 0 mm 1 m/S 611 mmHg 68%
    23:00 +12°C° 0 mm 1 m/S 611 mmHg 67%

    27 August, Dienstag

    Zeit Temperatur Niederschläge Wind Luftdruck Luftfeuchtigkeit
    00:00 +12°C° 0 mm 1 m/S 611 mmHg 66%
    01:00 +12°C° 0 mm 1 m/S 611 mmHg 68%
    02:00 +12°C° 0 mm 1 m/S 611 mmHg 69%
    03:00 +11°C° 0 mm 1 m/S 611 mmHg 71%
    04:00 +12°C° 0 mm 1 m/S 611 mmHg 71%
    05:00 +11°C° 0 mm 0 m/S 611 mmHg 71%
    06:00 +11°C° 0 mm 0 m/S 612 mmHg 72%
    07:00 +14°C° 0 mm 1 m/S 613 mmHg 65%
    08:00 +16°C° 0 mm 1 m/S 613 mmHg 59%
    09:00 +17°C° 0 mm 2 m/S 614 mmHg 53%
    10:00 +17°C° 0.1 mm 2 m/S 614 mmHg 55%
    11:00 +18°C° 0.1 mm 2 m/S 615 mmHg 57%
    12:00 +18°C° 0.1 mm 2 m/S 615 mmHg 59%
    13:00 +16°C° 0.4 mm 1 m/S 614 mmHg 68%
    14:00 +15°C° 0.4 mm 1 m/S 613 mmHg 76%
    15:00 +14°C° 0.4 mm 1 m/S 613 mmHg 85%
    16:00 +14°C° 0.5 mm 1 m/S 613 mmHg 87%
    17:00 +13°C° 0.5 mm 1 m/S 613 mmHg 89%
    18:00 +13°C° 0.5 mm 1 m/S 612 mmHg 91%
    19:00 +12°C° 0.1 mm 1 m/S 613 mmHg 92%
    20:00 +12°C° 0.1 mm 1 m/S 613 mmHg 93%
    21:00 +11°C° 0.1 mm 1 m/S 613 mmHg 94%
    22:00 +11°C° 0 mm 1 m/S 613 mmHg 95%
    23:00 +11°C° 0 mm 1 m/S 613 mmHg 95%

    28 August, Mittwoch

    Zeit Temperatur Niederschläge Wind Luftdruck Luftfeuchtigkeit
    00:00 +11°C° 0 mm 1 m/S 613 mmHg 95%
    01:00 +10°C° 0 mm 1 m/S 613 mmHg 94%
    02:00 +10°C° 0 mm 1 m/S 613 mmHg 93%
    03:00 +10°C° 0 mm 1 m/S 612 mmHg 92%
    04:00 +10°C° 0 mm 1 m/S 613 mmHg 90%
    05:00 +10°C° 0 mm 1 m/S 613 mmHg 88%
    06:00 +10°C° 0 mm 1 m/S 613 mmHg 86%
    07:00 +13°C° 0 mm 1 m/S 614 mmHg 77%
    08:00 +16°C° 0 mm 1 m/S 616 mmHg 68%
    09:00 +17°C° 0 mm 0 m/S 617 mmHg 59%
    10:00 +20°C° 0 mm 1 m/S 617 mmHg 53%
    11:00 +22°C° 0 mm 1 m/S 617 mmHg 47%
    12:00 +23°C° 0 mm 1 m/S 618 mmHg 40%
    13:00 +23°C° 0 mm 1 m/S 617 mmHg 42%
    14:00 +22°C° 0 mm 1 m/S 617 mmHg 44%
    15:00 +22°C° 0 mm 1 m/S 616 mmHg 46%
    16:00 +20°C° 0 mm 1 m/S 616 mmHg 55%
    17:00 +19°C° 0 mm 1 m/S 615 mmHg 63%
    18:00 +16°C° 0 mm 1 m/S 614 mmHg 71%
    19:00 +15°C° 0 mm 1 m/S 614 mmHg 73%
    20:00 +13°C° 0 mm 1 m/S 614 mmHg 75%
    21:00 +12°C° 0 mm 1 m/S 614 mmHg 77%
    22:00 +12°C° 0 mm 1 m/S 614 mmHg 73%
    23:00 +12°C° 0 mm 1 m/S 614 mmHg 68%
    Mehr zeigen